Hourly Data Report for August 11, 2021

ALGONQUIN PARK EAST GATE
ONTARIO
Current Station Operator: ECCC - MSC

45°32'00.000" N
78°16'00.000" W
397.00 m
6080192
71581
TNK

Download Data

Hourly Data (August 2021)
Hourly Data Report for August 11, 2021
TIME
LST
Temp Definition
°C
Dew Point Definition
°C
Rel Hum Definition
%
Precip. Amount Definition
mm

Wind Dir Definition
10's deg

Wind Spd Definition
km/h
Visibility Definition
km
Stn Press Definition
kPa
Hmdx Definition


Wind Chill Definition


Weather Definition


00:00 21.1 20.5 97 0.0   0   96.46 29   LegendNANA
01:00 20.8 20.4 97 0.0 22 2   96.42 29   LegendNANA
02:00 20.8 20.3 97 0.0 0 1   96.38 29   LegendNANA
03:00 20.5 20.0 97 0.0 28 1   96.41 28   LegendNANA
04:00 20.8 20.2 96 0.0 27 2   96.49 29   LegendNANA
05:00 20.9 20.2 96 0.0 25 2   96.50 29   LegendNANA
06:00 21.2 20.5 96 0.0 0 1   96.48 29   LegendNANA
07:00 21.9 20.8 93 0.0 19 1   96.43 30   LegendNANA
08:00 23.5 21.7 90 0.0 14 4   96.42 33   LegendNANA
09:00 23.5 21.3 88 0.0 21 4   96.53 32   LegendNANA
10:00 23.9 21.1 84 0.0 23 6   96.54 32   LegendNANA
11:00 25.0 21.0 79 0.0 25 7   96.47 33   LegendNANA
12:00 24.4 21.2 82 0.0 17 3   96.46 33   LegendNANA
13:00 27.2 21.2 70 0.0 18 4   96.46 36   LegendNANA
14:00 27.9 20.3 64 0.0 25 6   96.44 36   LegendNANA
15:00 28.7 19.8 59 0.0 23 8   96.34 36   LegendNANA
16:00 28.4 19.1 57 0.0 26 6   96.32 35   LegendNANA
17:00 27.8 18.7 58 0.0 23 5   96.25 34   LegendNANA
18:00 26.6 19.1 64 0.0 21 3   96.26 33   LegendNANA
19:00 24.4 19.8 75 0.0 19 1   96.26 32   LegendNANA
20:00 23.0 20.9 88 0.4 19 2   96.34 31   LegendNANA
21:00 20.7 19.4 92 0.4 27 1   96.38 28   LegendNANA
22:00 20.2 19.7 96 3.7 14 2   96.36 28   LegendNANA
23:00 19.6 19.2 97 0.0 0 1   96.31     LegendNANA

Notes on Data Quality.

Legend

  • E = Estimated
  • M = Missing
  • NA = Not Available*
  • [empty] = Indicates an unobserved value
Date modified: